Tracking 19224 objects as of 22-Jul-2018
HD Live streaming from Space Station
objects crossing your sky now

FENGYUN 1C DEB

Track FENGYUN 1C DEB now!
10-day predictions


NORAD ID: 31452
Int'l Code: 1999-025BUQ
Perigee: 831.0 km
Apogee: 890.3 km
Inclination: 98.8 °
Period: 102.0 minutes
Semi major axis: 7231 km
RCS: 0.0057 m2 (small)
Launch date: May 10, 1999
Source: People's Republic of China (PRC)
Launch site: Taiyaun Space Center, China (TSC)

Note: This is SATELLITE DEBRIS
aabbcc
Your satellite tracking list
Your tracking list is empty




NASA's NSSDC Master Catalog

Two Line Element Set (TLE):
1 31452U 99025BUQ 18201.53719214 +.00000121 +00000-0 +89739-4 0  9998
2 31452 098.7605 241.2760 0041060 272.8375 086.8098 14.11712875580536
Source of the keplerian elements: AFSPC